[[{"header":{"parameterUnit":"m.s-1","parameterCategory":1,"la1":30.2991,"la2":30.254,"lo1":-89.0895,"lo2":-89.0444,"dy":0.0017,"dx":0.0017,"nx":28,"ny":28,"refTime":"2024-03-30T21:00:00:Z","depth":0,"parameterNumber":2,"parameterNumberName":"U-component_of_WINDS"},"data":[0,0,0,0,0,0,0,0,0,0,0,0,0,0,0,0,0,0,0,0,0,0,0,0,0,0,0,0,0,0,0,0,0,0,0,0,0,0,0,0,0,0,0,0,0,0,0,0,0,0,0,0,0,0,0,0,0,0,-2.7756,-2.7756,0,-2.7763,-2.7763,-2.7763,-2.769,-2.7688,-2.7686,-2.7684,-2.7691,-2.7693,-2.7695,0,0,0,0,0,0,0,0,0,0,0,0,0,-2.768,-2.7681,-2.7756,-2.7756,-2.7756,-2.7763,-2.7763,-2.7763,-2.769,-2.7688,-2.7685,-2.7683,-2.769,-2.7692,-2.7695,0,0,0,0,0,0,0,0,0,0,0,0,0,-2.7702,-2.7682,-2.7756,-2.772,-2.7717,-2.7763,-2.7763,-2.7763,-2.7691,-2.7688,-2.7685,-2.7682,-2.7689,-2.7692,-2.7695,-2.7775,0,0,-2.7705,-2.7706,0,0,0,0,0,0,0,0,-2.7701,-2.7705,-2.7726,-2.7723,-2.772,-2.7722,-2.7738,-2.7767,-2.7692,-2.7701,-2.7684,-2.768,-2.7704,-2.7705,-2.7713,-2.7775,-2.7775,-2.7705,-2.7707,-2.7708,-2.7709,0,0,0,0,0,0,0,-2.77,-2.7704,-2.7758,-2.7726,-2.7722,-2.7704,-2.7704,-2.7744,-2.7719,-2.77,-2.7695,-2.7696,-2.7701,-2.7711,-2.7713,-2.7775,-2.7705,-2.7708,-2.771,-2.7711,-2.7902,-2.7905,0,0,0,0,0,0,-2.7703,-2.7704,-2.7758,-2.7759,-2.7703,-2.7708,-2.7708,-2.7725,-2.7718,-2.7715,-2.7699,-2.7693,-2.7707,-2.7709,-2.7713,-2.7804,-2.7708,-2.7711,-2.7713,-2.7899,-2.7903,-2.7906,0,0,0,0,0,0,-2.7702,-2.7708,-2.7758,-2.773,-2.7735,-2.7713,-2.7732,-2.7726,-2.7735,-2.7718,-2.7713,-2.7713,-2.7704,-2.7709,-2.776,-2.7803,-2.7712,-2.7715,-2.7895,-2.79,-2.7905,-2.7987,0,0,0,0,0,0,-2.77,-2.7708,-2.7738,-2.7731,-2.7737,-2.7805,-2.7735,-2.7729,-2.7741,-2.7733,-2.7729,-2.7726,-2.7702,-2.7756,-2.7763,-2.7806,-2.7718,-2.7891,-2.7897,-2.7903,-2.7981,-2.7995,-2.8006,0,0,0,0,0,-2.7697,-2.7761,-2.774,-2.7747,-2.7773,-2.7807,-2.781,-2.7782,-2.7745,-2.7774,-2.7763,-2.7726,-2.7798,-2.7761,-2.7769,-2.7813,-2.7888,-2.7896,-2.7903,-2.7975,-2.7992,-2.8006,0,0,0,0,0,0,-2.7773,-2.7759,-2.7736,-2.7799,-2.7805,-2.7795,-2.7831,-2.7801,-2.7817,-2.7809,-2.7774,-2.7774,-2.7831,-2.7828,-2.7787,-2.789,-2.7836,-2.7846,-2.7889,-2.7905,-2.7917,-2.7915,-2.772,0,0,0,0,0,-2.7797,-2.7826,-2.7813,-2.787,-2.7875,-2.7853,-2.7867,-2.7845,-2.7849,-2.7851,-2.7844,-2.785,-2.7873,-2.789,-2.7911,-2.7982,-2.7979,-2.8016,-2.8029,-2.804,-2.8047,-2.8083,-2.8099,-2.793,-2.793,-2.793,0,0,-2.7847,-2.7843,-2.7864,-2.7886,-2.7887,-2.7918,-2.7855,-2.789,-2.7912,-2.7856,-2.7903,-2.7899,-2.7903,-2.7964,-2.7991,-2.7963,-2.8094,-2.8049,-2.8058,-2.8059,-2.8092,-2.8108,-2.8122,-2.7935,-2.7934,-2.7934,0,0,-2.7953,-2.7954,-2.8001,-2.8005,-2.8009,-2.7994,-2.8006,-2.8001,-2.7995,-2.8043,-2.8002,-2.8028,-2.807,-2.8074,-2.8082,-2.8193,-2.8158,-2.8201,-2.8267,-2.8302,-2.8315,-2.8327,-2.8364,-2.8378,-2.8209,-2.8209,-2.8209,0,-2.8014,-2.8058,-2.8029,-2.8067,-2.8077,-2.803,-2.8077,-2.8082,-2.8093,-2.8101,-2.8071,-2.8123,-2.8123,-2.8184,-2.8211,-2.822,-2.8231,-2.8199,-2.8316,-2.8327,-2.8338,-2.8373,-2.8387,-2.8214,-2.8214,-2.8213,-2.8213,0,-2.8132,-2.8163,-2.8201,-2.8213,-2.8228,-2.8271,-2.8248,-2.8268,-2.8246,-2.8235,-2.8283,-2.8282,-2.8301,-2.8315,-2.8294,-2.8373,-2.8356,-2.8322,-2.8267,-2.8359,-2.8391,-2.8404,-2.8221,-2.8219,-2.8218,-2.8217,0,0,-2.8281,-2.8278,-2.8292,-2.8297,-2.8299,-2.8323,-2.8364,-2.8383,-2.84,-2.841,-2.8442,-2.8481,-2.8449,-2.8458,-2.8438,-2.847,-2.8555,-2.8431,-2.8431,-2.8452,-2.864,-2.8663,-2.8679,-2.8534,-2.8537,-2.8539,-2.8639,0,-2.8382,-2.845,-2.8427,-2.8496,-2.8525,-2.8482,-2.8517,-2.8523,-2.8514,-2.8537,-2.8528,-2.8555,-2.8513,-2.8518,-2.8548,-2.8538,-2.8592,-2.8531,-2.8562,-2.8564,-2.8559,-2.8697,-2.8721,-2.8815,-2.8652,-2.8654,-2.8656,0,-2.8507,-2.8522,-2.8595,-2.8593,-2.8604,-2.8636,-2.8652,-2.8675,-2.8681,-2.8673,-2.8684,-2.8657,-2.8697,-2.8646,-2.87,-2.8659,-2.8671,-2.8669,-2.8672,-2.8671,-2.8612,-2.8696,-2.8845,-2.8858,-2.8676,-2.8674,-2.8672,0,-2.8605,-2.8645,-2.8693,-2.8698,-2.8698,-2.8721,-2.8722,-2.8725,-2.8739,-2.8754,-2.8762,-2.8782,-2.8792,-2.8808,-2.8787,-2.8752,-2.8844,-2.8791,-2.8837,-2.8837,-2.8854,-2.8853,-2.9004,-2.8869,-2.8869,-2.8868,-2.8868,0,-2.8718,-2.8763,-2.8737,-2.8766,-2.8816,-2.879,-2.884,-2.8836,-2.8839,-2.8867,-2.8833,-2.886,-2.8832,-2.8857,-2.8842,-2.8888,-2.8894,-2.8887,-2.8882,-2.8888,-2.8888,-2.8892,-2.8884,-2.8872,-2.8871,-2.8871,-2.887,0,-2.8834,-2.8818,-2.8867,-2.8864,-2.8864,-2.89,-2.8897,-2.8924,-2.8915,-2.895,-2.8957,-2.8942,-2.8969,-2.8952,-2.8979,-2.8969,-2.9029,-2.9016,-2.9026,-2.9021,-2.9067,-2.9062,-2.9223,-2.9242,-2.9098,-2.91,-2.9101,0,-2.8904,-2.8938,-2.8939,-2.8955,-2.8958,-2.8985,-2.8998,-2.8975,-2.8991,-2.9001,-2.9027,-2.9052,-2.9069,-2.9115,-2.9106,-2.9128,-2.9113,-2.9169,-2.9116,-2.9121,-2.911,-2.9107,-2.911,-2.9178,-2.9179,-2.9181,-2.9182,0,-2.9031,-2.9022,-2.9043,-2.9062,-2.908,-2.9094,-2.9105,-2.912,-2.9097,-2.9117,-2.9144,-2.9158,-2.9187,-2.9211,-2.9229,-2.923,-2.9202,-2.9199,-2.921,-2.9215,-2.9218,-2.9214,-2.9051,-2.9195,-2.9193,-2.9192,-2.9192,-2.9191,-2.9124,-2.9152,-2.9156,-2.9181,-2.9188,-2.9199,-2.9224,-2.9218,-2.9241,-2.9262,-2.9248,-2.928,-2.9286,-2.9308,-2.9313,-2.9338,-2.9315,-2.9332,-2.9336,-2.9339,-2.9344,-2.9218,-2.9341,-2.9341,-2.9341,-2.934,-2.934,0,-2.9246,-2.9248,-2.9271,-2.9288,-2.9308,-2.9281,-2.9293,-2.9311,-2.934,-2.9348,-2.9367,-2.9399,-2.9423,-2.9418,-2.9439,-2.946,-2.9448,-2.9466,-2.9463,-2.9463,-2.9365,-2.9351,-2.9476,-2.9476,-2.9476,-2.9476,-2.9476,-2.9476,-2.9312,-2.9357,-2.9349,-2.9397,-2.9398,-2.943,-2.9438,-2.9449,-2.9455,-2.9492,-2.9512,-2.9509,-2.9512,-2.9534,-2.9555,-2.9553,-2.9561,-2.9584,-2.9577,-2.9484,-2.947,-2.9457,-2.9444,-2.9587,-2.9587,-2.9673,-2.9673,-2.9674]},{"header":{"parameterUnit":"m.s-1","parameterCategory":1,"la1":30.2991,"la2":30.254,"lo1":-89.0895,"lo2":-89.0444,"dy":0.0017,"dx":0.0017,"nx":28,"ny":28,"refTime":"2024-03-30T21:00:00:Z","depth":0,"parameterNumber":3,"parameterNumberName":"V-component_of_WINDS"},"data":[0,0,0,0,0,0,0,0,0,0,0,0,0,0,0,0,0,0,0,0,0,0,0,0,0,0,0,0,0,0,0,0,0,0,0,0,0,0,0,0,0,0,0,0,0,0,0,0,0,0,0,0,0,0,0,0,0,0,3.6842,3.6842,0,3.6845,3.6845,3.6845,3.6898,3.6899,3.69,3.6902,3.69,3.6899,3.6897,0,0,0,0,0,0,0,0,0,0,0,0,0,3.688,3.6879,3.6842,3.6842,3.6842,3.6845,3.6845,3.6845,3.6897,3.6899,3.6901,3.6902,3.69,3.6899,3.6897,0,0,0,0,0,0,0,0,0,0,0,0,0,3.6871,3.6878,3.6842,3.6869,3.6871,3.6845,3.6845,3.6845,3.6897,3.6899,3.6901,3.6903,3.6901,3.6899,3.6897,3.6844,0,0,3.6891,3.689,0,0,0,0,0,0,0,0,3.6871,3.6869,3.6865,3.6867,3.6869,3.6873,3.6858,3.6845,3.6897,3.6887,3.6902,3.6904,3.6889,3.6888,3.6884,3.6844,3.6844,3.6891,3.689,3.6889,3.6888,0,0,0,0,0,0,0,3.6872,3.687,3.6843,3.6865,3.6867,3.688,3.6881,3.6856,3.6876,3.6888,3.6892,3.6892,3.6891,3.6886,3.6884,3.6844,3.6891,3.6889,3.6888,3.6887,3.6764,3.6762,0,0,0,0,0,0,3.6869,3.687,3.6843,3.6843,3.6876,3.6878,3.6879,3.687,3.6877,3.688,3.689,3.6894,3.6888,3.6887,3.6885,3.6826,3.6889,3.6887,3.6886,3.6766,3.6764,3.6762,0,0,0,0,0,0,3.687,3.6866,3.6843,3.6858,3.6856,3.6875,3.6864,3.6869,3.6864,3.6879,3.6882,3.6881,3.689,3.6887,3.6855,3.6826,3.6886,3.6884,3.6769,3.6766,3.6763,3.6705,0,0,0,0,0,0,3.6871,3.6866,3.6846,3.6857,3.6855,3.6813,3.6863,3.6867,3.6861,3.6867,3.6871,3.6874,3.6891,3.6858,3.6853,3.6825,3.6883,3.6771,3.6767,3.6764,3.671,3.6701,3.6693,0,0,0,0,0,3.6872,3.6828,3.6845,3.6842,3.683,3.6812,3.681,3.6832,3.6859,3.6839,3.6849,3.6874,3.683,3.6854,3.6849,3.6819,3.6773,3.6768,3.6764,3.6714,3.6702,3.6693,0,0,0,0,0,0,3.6811,3.683,3.6849,3.6807,3.6808,3.6821,3.6796,3.6819,3.681,3.6816,3.6842,3.6843,3.6807,3.681,3.6836,3.6771,3.6806,3.68,3.677,3.6759,3.6751,3.6751,3.6881,0,0,0,0,0,3.6794,3.6778,3.6794,3.6756,3.6756,3.6776,3.6768,3.6786,3.6787,3.6786,3.6794,3.6793,3.6779,3.6769,3.6757,3.6711,3.6714,3.6688,3.668,3.6673,3.6667,3.6646,3.6636,3.6746,3.6746,3.6746,0,0,3.6755,3.6764,3.6752,3.6744,3.6747,3.673,3.6775,3.6754,3.6742,3.6783,3.6754,3.6759,3.676,3.6721,3.6704,3.6722,3.6638,3.6667,3.6661,3.6659,3.664,3.663,3.662,3.6743,3.6744,3.6744,0,0,3.6678,3.6683,3.6653,3.6656,3.666,3.6674,3.6667,3.6677,3.6683,3.6655,3.6686,3.6672,3.6647,3.6647,3.6644,3.6571,3.6595,3.6566,3.6521,3.65,3.6492,3.6484,3.646,3.6451,3.6561,3.6561,3.6561,0,3.663,3.6607,3.6634,3.6613,3.6609,3.6648,3.6619,3.6619,3.6618,3.6615,3.6636,3.6609,3.6611,3.6575,3.6558,3.6553,3.6547,3.6566,3.6491,3.6484,3.6477,3.6454,3.6445,3.6558,3.6558,3.6558,3.6559,0,3.6549,3.6533,3.6508,3.651,3.6503,3.6477,3.6501,3.6491,3.651,3.6523,3.6495,3.65,3.6492,3.6484,3.6501,3.6451,3.6462,3.6487,3.6523,3.6463,3.6442,3.6433,3.6553,3.6554,3.6555,3.6556,0,0,3.6431,3.6452,3.6442,3.6445,3.6454,3.6442,3.6419,3.6413,3.6405,3.6403,3.6386,3.6366,3.639,3.6386,3.6404,3.6385,3.633,3.6412,3.6413,3.6398,3.6278,3.6261,3.625,3.6346,3.6345,3.6344,3.6279,0,3.6359,3.6322,3.6347,3.6306,3.6293,3.6331,3.6312,3.6315,3.6327,3.6316,3.6329,3.6315,3.6347,3.6346,3.6329,3.6341,3.6307,3.6345,3.633,3.6329,3.633,3.6239,3.6219,3.6158,3.6271,3.6269,3.6268,0,3.6268,3.6267,3.6225,3.6241,3.6236,3.6218,3.6216,3.6206,3.6211,3.6221,3.6219,3.6243,3.6222,3.6259,3.6231,3.6257,3.6252,3.6257,3.6255,3.6255,3.6295,3.6237,3.6138,3.613,3.6255,3.6256,3.6257,0,3.6189,3.6176,3.6151,3.6151,3.6168,3.6155,3.6162,3.617,3.6165,3.6164,3.6162,3.6156,3.6154,3.6149,3.6171,3.6195,3.6141,3.6179,3.6149,3.6149,3.6136,3.6137,3.6036,3.6131,3.6131,3.6131,3.6132,0,3.6105,3.6079,3.6116,3.61,3.6072,3.6102,3.6073,3.6084,3.6091,3.6078,3.611,3.6097,3.6127,3.6117,3.6133,3.6109,3.6107,3.6115,3.612,3.6113,3.6112,3.611,3.6115,3.6129,3.613,3.613,3.613,0,3.6012,3.6036,3.6011,3.6031,3.6035,3.6014,3.603,3.6017,3.6032,3.6015,3.6013,3.6036,3.6027,3.6049,3.6041,3.6053,3.6019,3.603,3.6018,3.6021,3.5991,3.5995,3.5887,3.5875,3.5976,3.5975,3.5975,0,3.5957,3.5939,3.5958,3.5953,3.5958,3.5948,3.5946,3.5975,3.5971,3.5978,3.5964,3.5958,3.5954,3.5937,3.5953,3.5948,3.596,3.5923,3.596,3.5954,3.5962,3.5963,3.5963,3.5916,3.5914,3.5913,3.5912,0,3.5859,3.5873,3.5869,3.5869,3.5866,3.5867,3.587,3.5864,3.5895,3.5889,3.5881,3.5879,3.5874,3.5868,3.5867,3.5873,3.5898,3.5901,3.5895,3.5887,3.5882,3.5887,3.5998,3.5903,3.5904,3.5905,3.5905,3.5906,3.5785,3.5771,3.5784,3.5779,3.5785,3.5788,3.5778,3.5793,3.5788,3.5788,3.5805,3.5794,3.5803,3.5806,3.5809,3.5801,3.5818,3.5808,3.5805,3.5803,3.5799,3.5883,3.5801,3.5801,3.5802,3.5802,3.5802,0,3.569,3.5701,3.5696,3.5702,3.5698,3.5725,3.5731,3.5726,3.5716,3.5723,3.5721,3.5713,3.5708,3.5725,3.5723,3.5713,3.5725,3.5712,3.5713,3.5715,3.5783,3.579,3.5703,3.5703,3.5703,3.5703,3.5703,3.5703,3.564,3.562,3.5635,3.5619,3.563,3.5621,3.5623,3.5627,3.5633,3.5624,3.5621,3.5633,3.5644,3.5644,3.5641,3.5646,3.5644,3.5628,3.5637,3.57,3.571,3.5719,3.5726,3.5627,3.5626,3.557,3.5569,3.5569]}]]